Showing default

SOLRAD 3/INJUN 1, 117

Orbit data source: Space-Track

SOLRAD 3/INJUN 1, 117 is an American payload satellite in LEO that was launched on Thu, 29 Jun 1961 UTC via a THOR ABLESTAR launch vehicle from the Air Force Eastern Test Range (AFETR). Payload-class satellites include a variety of spacecraft equipped with specific instruments for various scientific and technological missions. These include communications satellites like Starlink; space stations such as the ISS; scientific satellites like the Hubble; Earth observation satellites from companies like Planet Labs, Umbra, and HawkEye 360; GPS; miniature CubeSats for education and research; and military/defense satellites.

Loading next visibility...
Identifier
117, 1961-015B
Orbit
LEO
Country
Flag of USUS
Related business
Manufacturer
SUI/APL
Mission
Spacecraft
Bus & Motor
INJUN, Unknown motor
Mass
43 kg wet, 18 kg dry
Launch date (UTC)
1961-06-29 (64 years ago)
Launch vehicle
THOR ABLESTAR
Launch site
Air Force Eastern Test Range (AFETR)
Object type
Payload
Rocket body
Debris
Shape & HBR
Unknown
Radar Cross Section
Medium (>0.1 m² and <1 m²)

Expand to show TLE details & history
Last TLE update: 15 hours ago

TLE from 15 hours ago
0 SOLRAD 3/INJUN 1
1 00117U 61015B   25303.73308556  .00000003  00000-0  62815-4 0  9991
2 00117  66.8124 204.5122 0070923  99.3389 261.5718 13.90156287262165
Epoch: 2025-10-30T17:35Z
TLE epoch observation values (Epoch: 2025-10-30T17:35:38.592Z)
Latitude
-0°
Longitude
-98.68624°
Altitude
938.115 km
Speed
7.379 km/s
True Right ascension
13h 38m 02s
True Declination
0° 00' 00"
Sunlit
Object was in daylight at epoch
Visualization orbit readout
Latitude
Unknown
Longitude
Unknown
Altitude
Unknown
Speed
Unknown
Apparent Right ascension
Unknown
Apparent Declination
Unknown
Sunlit
N/A
Visualization observer readout
Local Sidereal Time
04:12:44
Azimuth
Unknown
Elevation
Unknown
Doppler factor
Unknown
Orbital elements
Apogee altitude
978.282 km
Perigee altitude
874.669 km
Semi-major axis
7,304.613 km
Eccentricity
0.00709
Inclination
66.8124°
RAAN
204.5122°
Arg. of periapsis
99.3389°
True anomaly
260.76893°
Mean anomaly
261.5718°
Eccentric anomaly
261.17026°
Mean motion
3.47654 °/min
Orbital period
103.55 mins
BSTAR
0.000062815
Loading maneuver chart data...
Computing Atmospheric mass density...

Documentation

Showing up to 5 results
|